TimeMST,TemperatureF,Dew PointF,Humidity,Sea Level PressureIn,VisibilityMPH,Wind Direction,Wind SpeedMPH,Gust SpeedMPH,PrecipitationIn,Events,Conditions,WindDirDegrees,DateUTC
12:53 AM,-7.1,-16.1,65,30.46,10.0,West,10.4,-,N/A,,Overcast,260,2013-12-06 07:53:00
1:53 AM,-9.0,-18.0,65,30.48,10.0,WNW,6.9,-,N/A,,Clear,300,2013-12-06 08:53:00
2:53 AM,-11.0,-20.0,64,30.51,10.0,West,8.1,-,N/A,,Mostly Cloudy,280,2013-12-06 09:53:00
3:53 AM,-9.9,-18.9,65,30.52,10.0,West,4.6,-,N/A,,Overcast,280,2013-12-06 10:53:00
4:18 AM,-13.0,-20.9,68,30.17,8.0,WNW,6.9,-,N/A,,Mostly Cloudy,290,2013-12-06 11:18:00
4:35 AM,-15.0,-22.0,71,30.17,10.0,West,5.8,-,N/A,,Scattered Clouds,270,2013-12-06 11:35:00
4:53 AM,-11.9,-20.0,67,30.54,10.0,West,8.1,-,N/A,,Clear,270,2013-12-06 11:53:00
5:53 AM,-13.0,-22.0,64,30.56,10.0,West,6.9,-,N/A,,Clear,260,2013-12-06 12:53:00
6:53 AM,-15.0,-23.1,67,30.58,9.0,West,5.8,-,N/A,,Mostly Cloudy,260,2013-12-06 13:53:00
7:07 AM,-13.0,-22.0,64,30.19,6.0,West,6.9,-,N/A,,Haze,260,2013-12-06 14:07:00
7:14 AM,-15.0,-23.1,67,30.19,7.0,WSW,6.9,-,N/A,,Mostly Cloudy,250,2013-12-06 14:14:00
7:24 AM,-15.0,-23.1,67,30.19,10.0,Variable,6.9,-,N/A,,Scattered Clouds,0,2013-12-06 14:24:00
7:53 AM,-14.1,-23.1,64,30.59,10.0,West,5.8,-,N/A,,Mostly Cloudy,270,2013-12-06 14:53:00
8:53 AM,-14.1,-22.0,68,30.62,9.0,NW,4.6,-,N/A,,Overcast,310,2013-12-06 15:53:00
9:26 AM,-13.0,-20.9,68,30.22,7.0,WSW,5.8,-,0.00,,Overcast,250,2013-12-06 16:26:00
9:37 AM,-13.0,-20.9,68,30.22,10.0,WSW,5.8,-,0.00,,Mostly Cloudy,240,2013-12-06 16:37:00
9:53 AM,-14.1,-20.9,71,30.63,10.0,SW,5.8,-,0.00,,Scattered Clouds,230,2013-12-06 16:53:00
10:53 AM,-11.9,-20.0,67,30.61,10.0,SSW,5.8,-,N/A,,Clear,210,2013-12-06 17:53:00
11:53 AM,-11.0,-18.9,68,30.58,10.0,SSW,4.6,-,N/A,,Clear,210,2013-12-06 18:53:00
12:53 PM,-9.9,-20.0,61,30.56,10.0,South,5.8,-,N/A,,Clear,170,2013-12-06 19:53:00
1:53 PM,-8.0,-18.0,61,30.54,9.0,ESE,4.6,-,N/A,,Scattered Clouds,110,2013-12-06 20:53:00
2:53 PM,-9.9,-18.0,68,30.56,10.0,East,8.1,-,N/A,,Mostly Cloudy,80,2013-12-06 21:53:00
3:26 PM,-9.9,-18.0,68,30.18,10.0,East,10.4,-,N/A,,Overcast,80,2013-12-06 22:26:00
3:53 PM,-11.0,-18.0,71,30.56,5.0,East,12.7,-,N/A,,Haze,80,2013-12-06 22:53:00
4:27 PM,-11.0,-18.0,71,30.18,10.0,East,11.5,-,N/A,,Overcast,80,2013-12-06 23:27:00
4:53 PM,-11.0,-18.0,71,30.57,10.0,East,11.5,-,N/A,,Mostly Cloudy,80,2013-12-06 23:53:00
5:09 PM,-11.9,-18.9,71,30.18,10.0,East,10.4,-,N/A,,Scattered Clouds,80,2013-12-07 00:09:00
5:53 PM,-13.0,-18.9,75,30.60,8.0,East,6.9,-,N/A,,Mostly Cloudy,90,2013-12-07 00:53:00
6:53 PM,-11.9,-18.9,71,30.60,4.0,East,10.4,-,N/A,,Haze,90,2013-12-07 01:53:00
7:53 PM,-11.9,-18.9,71,30.61,4.0,East,10.4,-,N/A,,Haze,90,2013-12-07 02:53:00
8:53 PM,-13.0,-18.9,75,30.61,4.0,East,9.2,-,N/A,,Haze,90,2013-12-07 03:53:00
9:53 PM,-13.0,-18.9,75,30.61,6.0,East,10.4,-,N/A,,Haze,80,2013-12-07 04:53:00
10:53 PM,-13.0,-20.0,71,30.60,3.0,East,9.2,-,N/A,,Haze,100,2013-12-07 05:53:00
11:41 PM,-13.0,-20.0,71,30.19,3.0,East,9.2,-,N/A,,Haze,90,2013-12-07 06:41:00
11:49 PM,-14.8,-20.2,77,30.19,2.0,East,9.2,-,N/A,,Haze,90,2013-12-07 06:49:00
11:53 PM,-14.1,-20.9,71,30.59,2.0,East,9.2,-,N/A,,Haze,80,2013-12-07 06:53:00